星链-35207 (STARLINK-35207)

导读 | 豆包AI

STARLINK-35207是美国SpaceX公司星链星座的成员,于2025年9月5日发射入轨。星链项目旨在构建全球低轨宽带通信星座,为全球提供覆盖广泛的高速互联网服务。该卫星采用量产化平板设计,搭载氪工质霍尔推进器,具备自主避撞能力,服役寿命约5至7年,退役后会主动离轨再入大气层烧毁。作为星链大规模组网的一环,它进一步拓展了星座的全球服务覆盖范围。

Basic Information
目录编号:
65500
目录名称:
STARLINK-35207
国际标识:
2025-198J
轨道中心:
EARTH
卫星名称:
星链-35207
卫星全名:
星链-35207 (STARLINK-35207)
卫星状态:
在轨 (已飞行236 天)
发射日期:
2025-09-05 UTC
国别 :
美国 (US)
星等 :
--
Orbit Information
数据来源 国际轨道数据 AOE轨道数据
星历时间 2026-04-29T08:25:08+0800
9小时前
查看轨道信息
2026-04-22T22:00:00+0800
6天前
查看轨道信息
半长轴 6853.289km 6853.38km
偏心率 0.000131 0.0000921
轨道倾角 53.161° 53.163°
近地点辐角 155.415° 79.367°
升交点赤经 37.358° 67.245°
平近点角 204.691° 97.375°
近地点 474.254km 474.611km
远地点 476.05km 475.875km
周期 94.104分钟 94.106分钟
每日圈数 15.302212 15.301907
Detailed Information
固有亮度:
5
最大亮度:
2.5
卫星平台:
Starlink V1.0
覆盖范围:
全球
运营商:
太空探索技术公司
运营商所在国:
美国
制造商(研发单位):
太空探索技术公司
制造商所在国:
美国
使用方式:
暂无
Satellite Introduction
Starlink 计划是 SpaceX 推出的全球卫星互联网项目,通过发射低轨道卫星,为全球尤其是偏远地区提供高速、低延迟的互联网服务。自 2019 年起,Starlink 已部署数千颗卫星,旨在缩小全球数字鸿沟,推动互联网普及。该项目还为军事、航空等行业提供通信支持,带来广泛经济效益。
2D Orbit Map
3D Orbit Map
Orbit Altitude Analysis Chart
Orbit Inclination Analysis Chart
Orbit Comprehensive Analysis Chart
View Comprehensive Chart